Location: Burbank
(38.7788°N, 114.0429°W)
Time: 06:20:22
(UTC+00:00)

Tiros 1 despin weight - Pass Details

Date: 12 May 2026
Orbit: 554 x 591 km, 48.2° (Epoch: 7 June)

Event Time Altitude Azimuth Distance (km) Brightness Sun altitude
Rises 11:53:22 0° 189° (S) 2,748 ? -6.6°
Reaches altitude 10° 11:56:32 10° 164° (SSE) 1,848 ? -6.1°
Maximum altitude 11:58:47 14° 132° (SE) 1,593 ? -5.7°
Drops below altitude 10° 12:01:01 10° 99° (E) 1,843 ? -5.3°
Sets 12:04:10 0° 74° (ENE) 2,736 ? -4.8°
